Location: *
(50.6089°N, 2.2719°E)
Time: 18:24:19
(UTC+00:00)

STARLINK-64 - Pass Details

Date: 18 October 2019
Orbit: 545 x 555 km, 53.0° (Epoch: 17 November)

Event Time Altitude Azimuth Distance (km) Brightness Sun altitude
Rises 17:24:06 0° 245° (WSW) 2,724 9.0 -5.6°
Reaches altitude 10° 17:26:20 10° 244° (WSW) 1,833 7.8 -5.9°
Maximum altitude 17:30:30 82° 158° (SSE) 566 3.7 -6.6°
Drops below altitude 10° 17:34:42 10° 71° (ENE) 1,840 5.7 -7.3°
Enters shadow 17:34:57 - 71° (ENE) 1,940 5.8 -7.3°
